507  
NZUS93 KARX 271310  
HRRWXR  
 
CURRENT HOURLY OBSERVATIONS ACROSS  
MUCH OF THE UPPER MISSISSIPPI VALLEY  
NATIONAL WEATHER SERVICE LA CROSSE WI  
800 AM CDT TUE OCT 27 2020  
 
   
..SOUTHEAST MINNESOTA
 
 
 
CITY SKY/WX TMP DP RH WIND PRES REMARKS  
ROCHESTER CLEAR 11 8 88 S7 30.29F WCI 0  
ROCHESTER/MAYO FAIR 19 15 86 S7 30.29F WCI 9  
WINONA CLEAR 21 18 86 CALM 30.34F  
AUSTIN CLEAR 16 14 93 CALM 30.30F  
ALBERT LEA CLEAR 16 16 100 CALM 30.29F FOG  
DODGE CENTER CLEAR 10 9 92 S3 30.27F  
PRESTON CLEAR 16 13 91 S5 30.31S WCI 8  
OWATONNA CLEAR 16 12 86 S6 30.28F WCI 7  
FARIBAULT CLEAR 10 9 92 S3 30.28F  

 
   
..ELSEWHERE IN MINNESOTA
 
 
 
CITY SKY/WX TMP DP RH WIND PRES REMARKS  
MINNEAPOLIS CLEAR 16 13 88 SW6 30.28F WCI 7  
INTNL FALLS CLEAR 15 8 73 S9 29.98F WCI 3  
DULUTH CLEAR 14 9 80 SW12 30.12F WCI 0  
RED WING CLEAR 10 9 92 CALM 30.30F  
REDWOOD FALLS CLEAR 12 6 77 S10 30.24F WCI -1  
MANKATO CLEAR 12 11 95 S6 30.28F WCI 3  
WORTHINGTON CLEAR 14 11 87 SW14 30.22F WCI -1  
FAIRMONT CLEAR 7 4 87 S6 30.29F WCI -3  

 
   
..SOUTHWEST WISCONSIN
 
 
 
CITY SKY/WX TMP DP RH WIND PRES REMARKS  
LA CROSSE PTCLDY 22 15 75 SE3 30.34F  
PRAIRIE DU CHI PTCLDY 27 17 68 W3 30.36R  
BOSCOBEL PTCLDY 28 18 66 W5 30.35S WCI 23  
LONE ROCK MOCLDY 28 22 78 W3 30.34S  
PLATTEVILLE CLOUDY 30 24 79 W5 30.33R WCI 25  
FORT MC COY PTCLDY 17 16 95 CALM 30.33F  
CAMP DOUGLAS PTCLDY 19 19 100 W5 30.31S WCI 13  
MAUSTON-NEW LI MOSUNNY 21 19 89 W3 30.32S  
VIROQUA FAIR 20 20 100 SW3 30.31S  
WIS DELLS PTCLDY 24 20 85 CALM 30.31S  

 
   
..ELSEWHERE IN WISCONSIN
 
 
 
CITY SKY/WX TMP DP RH WIND PRES REMARKS  
MILWAUKEE CLOUDY 34 20 56 NW5 30.31S WCI 30  
MADISON MOCLDY 29 22 75 CALM 30.32F  
GREEN BAY MOCLDY 27 20 75 W3 30.31S  
EAU CLAIRE CLEAR 16 12 84 SW5 30.29F WCI 9  
BLACK RVR FLS FAIR 12 10 90 CALM 30.31F  
MEDFORD CLEAR 13 11 94 SW3 30.24S  
WAUSAU PTCLDY 20 15 81 SW5 30.25F WCI 13  
WIS RAPIDS PTCLDY 21 17 84 SW3 30.30F  
MARSHFIELD PTCLDY 19 14 81 W3 30.27S  
RICE LAKE CLEAR 12 10 89 CALM 30.26F  

 
   
..NORTHEAST IOWA
 
 
 
CITY SKY/WX TMP DP RH WIND PRES REMARKS  
WATERLOO PTCLDY 24 17 74 CALM 30.34F  
DUBUQUE CLOUDY 29 23 78 NW5 30.32S WCI 24  
DECORAH PTCLDY 21 21 100 CALM 30.31F  
MASON CITY CLEAR 13 11 92 S5 30.33F WCI 5  
CHARLES CITY PTCLDY 19 18 93 CALM 30.33F  
OELWEIN PTCLDY 23 19 86 W3 30.34F  

 
   
..ELSEWHERE IN IOWA
 
 
 
CITY SKY/WX TMP DP RH WIND PRES REMARKS  
DES MOINES PTCLDY 25 17 72 CALM 30.36F  
IOWA CITY CLOUDY 29 21 72 NW6 30.37F WCI 23  
FORT DODGE PTCLDY 15 12 88 CALM 30.32F  
MARSHALLTOWN PTCLDY 22 18 85 CALM 30.34F  
CEDAR RAPIDS CLOUDY 26 19 74 NW5 30.34F WCI 20  

 
   
..NORTHERN ILLINOIS
 
 
 
CITY SKY/WX TMP DP RH WIND PRES REMARKS  
CHICAGO-OHARE CLOUDY 35 29 78 NW5 30.31S WCI 31  
CHICAGO-MIDWAY LGT SNOW 35 29 78 N7 30.31S FOG WCI 29  
MOLINE CLOUDY 34 24 67 NW6 30.34S WCI 29  
ROCKFORD CLOUDY 34 23 64 NW3 30.34S  
PEORIA CLOUDY 35 28 75 CALM 30.33R  

 
 
NOTE: "FAIR" INDICATES FEW OR NO CLOUDS BELOW 12,000 FEET WITH NO  
SIGNIFICANT WEATHER AND/OR OBSTRUCTIONS TO VISIBILITY. WIND  
SPEEDS ARE IN MILES-PER-HOUR.  
 
 
CLICK HERE TO GO TO PREVIOUS BULLETINS.

The Nexlab WI Page
The Nexlab IA Page
The Nexlab MN Page Main Text Page